TimeEST,TemperatureF,Dew PointF,Humidity,Sea Level PressureIn,VisibilityMPH,Wind Direction,Wind SpeedMPH,Gust SpeedMPH,PrecipitationIn,Events,Conditions,WindDirDegrees,DateUTC
12:53 AM,63.0,60.1,90,30.09,10.0,Calm,Calm,-,N/A,,Clear,0,2013-11-07 05:53:00
1:53 AM,61.0,59.0,93,30.07,3.0,Calm,Calm,-,N/A,,Clear,0,2013-11-07 06:53:00
2:53 AM,60.1,57.9,93,30.06,8.0,Calm,Calm,-,N/A,,Clear,0,2013-11-07 07:53:00
3:53 AM,60.1,57.9,93,30.05,9.0,Calm,Calm,-,N/A,,Clear,0,2013-11-07 08:53:00
4:45 AM,59.0,57.2,94,30.04,1.8,Calm,Calm,-,N/A,,Clear,0,2013-11-07 09:45:00
4:53 AM,59.0,57.0,93,30.04,2.5,Calm,Calm,-,N/A,,Clear,0,2013-11-07 09:53:00
5:00 AM,59.0,57.2,94,30.05,8.0,Calm,Calm,-,N/A,,Clear,0,2013-11-07 10:00:00
5:53 AM,60.1,57.9,93,30.03,10.0,Calm,Calm,-,N/A,,Mostly Cloudy,0,2013-11-07 10:53:00
6:53 AM,57.9,55.9,93,30.05,9.0,West,3.5,-,N/A,,Overcast,280,2013-11-07 11:53:00
7:53 AM,60.1,57.9,93,30.06,9.0,Calm,Calm,-,N/A,,Overcast,0,2013-11-07 12:53:00
8:53 AM,63.0,60.1,90,30.07,10.0,Calm,Calm,-,N/A,,Overcast,0,2013-11-07 13:53:00
9:53 AM,64.9,62.1,90,30.07,10.0,NW,3.5,-,N/A,,Overcast,310,2013-11-07 14:53:00
10:53 AM,73.0,63.0,71,30.06,10.0,WNW,4.6,-,N/A,,Mostly Cloudy,300,2013-11-07 15:53:00
11:53 AM,75.9,62.1,62,30.04,10.0,West,5.8,-,N/A,,Mostly Cloudy,280,2013-11-07 16:53:00
12:53 PM,78.1,61.0,56,30.00,10.0,WSW,10.4,16.1,N/A,,Scattered Clouds,250,2013-11-07 17:53:00
1:53 PM,77.0,62.1,60,30.00,10.0,West,8.1,-,N/A,,Overcast,280,2013-11-07 18:53:00
2:53 PM,78.1,63.0,60,29.98,10.0,WNW,11.5,-,N/A,,Mostly Cloudy,300,2013-11-07 19:53:00
3:53 PM,77.0,63.0,62,29.97,10.0,WNW,9.2,-,N/A,,Mostly Cloudy,290,2013-11-07 20:53:00
4:53 PM,75.0,63.0,66,29.98,10.0,WNW,10.4,-,N/A,,Mostly Cloudy,300,2013-11-07 21:53:00
5:53 PM,72.0,62.1,71,30.00,10.0,WNW,9.2,-,N/A,,Mostly Cloudy,300,2013-11-07 22:53:00
6:53 PM,68.0,62.1,81,30.02,10.0,West,5.8,-,N/A,,Mostly Cloudy,280,2013-11-07 23:53:00
7:53 PM,66.9,61.0,81,30.03,10.0,WNW,5.8,-,N/A,,Scattered Clouds,300,2013-11-08 00:53:00
8:53 PM,64.9,60.1,84,30.04,10.0,West,8.1,-,N/A,,Clear,280,2013-11-08 01:53:00
9:53 PM,64.0,55.0,73,30.05,10.0,NW,12.7,-,N/A,,Clear,310,2013-11-08 02:53:00
10:53 PM,62.1,51.1,67,30.06,10.0,NW,11.5,-,N/A,,Clear,320,2013-11-08 03:53:00